Terminal Aerodrome Forecast
Issued by NWS

Home | Current Version | Previous Version | Text Only | Print | Product List | Glossary On
Versions: 1 2 3 4 5 6 7 8 9 10 11 12 13 14 15 16 17 18 19 20 21 22 23 24
000
FTUS41 KPBZ 020600 AAA
TAFAGC
TAF AMD
KAGC 020657Z 0207/0306 VRB03KT 1/4SM FG VV002
      TEMPO 0210/0214 2SM BR
     FM021400 16003KT P6SM SCT025=

USA.gov is the U.S. government's official web portal to all federal, state and local government web resources and services.